Flag for Germany Weather past 2 weeks in Nürtingen, Baden-Württemberg, Germany

Now
43 °F

Clear.


Feels Like: 43 °F
Forecast: 39 / 61 °F
Wind: 2 mph from South

Location: Stuttgart-Echterdingen

Current Time: Oct 25, 2014 at 7:34:55 AM

Latest Report: Oct 25, 2014 at 7:20 AM


Visibility: 10 mi

Pressure: 30.09 "Hg

Humidity: 100%

Dew point: 43 °F

Location of NürtingenLocation

Historic Weather in Nürtingen — Graph

°F

Nürtingen temperature yesterday

Maximum temperature yesterday: 57 °F (at 2:50 PM)
Minimum temperature yesterday: 37 °F (at 4:50 AM)
Average temperature yesterday: 45 °F

Past Weeks' High & Low Weather Summary

 TemperatureHumidityPressure
High75 °F (Oct 19, 3:20 PM)100% (Oct 10, 7:50 AM)30.27 "Hg (Oct 10, 7:50 AM)
Low37 °F (Oct 24, 4:50 AM)50% (Oct 19, 3:50 PM)29.65 "Hg (Oct 21, 6:20 PM)
Average55 °F86%30.00 "Hg
* Reported Oct 10 6:20 AM — Oct 25 6:20 AM, Nürtingen, Weather by CustomWeather, © 2014

Note: Actual official high and low records may vary slightly from our data, if they occured in-between our weather recording intervals... More about our weather records

Advertising

Nürtingen weather history for previous 24 hours

 ConditionsComfort  
Time TempWeatherWind HumidityBarometerVisibility
6:20 AM
Oct 25
43 °FLight rain. Partly cloudy.2 mph100%30.09 "HgN/A
5:50 AM43 °FLight rain. Partly cloudy.No wind100%30.09 "HgN/A
5:20 AM45 °FLight rain. Clear.1 mph93%30.09 "HgN/A
4:50 AM43 °FLight rain. Clear.No wind93%30.09 "HgN/A
4:20 AM45 °FClear.1 mph87%30.09 "Hg10 mi
3:50 AM43 °FClear.2 mph93%30.09 "Hg10 mi
3:20 AM43 °FClear.1 mph93%30.09 "Hg10 mi
2:50 AM43 °FClear.1 mph93%30.09 "Hg10 mi
2:20 AM43 °FClear.1 mph93%30.12 "Hg10 mi
1:50 AM43 °FClear.3 mph93%30.12 "Hg10 mi
1:20 AM43 °FClear.1 mph87%30.12 "Hg10 mi
12:50 AM43 °FClear.1 mph87%30.12 "Hg10 mi
12:20 AM43 °FClear.1 mph93%30.12 "Hg10 mi
11:50 PM
Oct 24
43 °FClear.1 mph87%30.12 "Hg10 mi
11:20 PM43 °FClear.1 mph93%30.12 "Hg10 mi
10:50 PM45 °FClear.2 mph87%30.12 "Hg10 mi
10:20 PM45 °FClear.1 mph87%30.12 "Hg10 mi
9:50 PM46 °FClear.1 mph82%30.12 "Hg10 mi
9:20 PM46 °FClear.2 mph87%30.12 "Hg10 mi
8:50 PM46 °FClear.1 mph82%30.12 "Hg10 mi
8:20 PM46 °FClear.1 mph82%30.12 "Hg10 mi
7:50 PM46 °FClear.1 mph82%30.12 "Hg10 mi
7:20 PM48 °FClear.2 mph76%30.12 "Hg10 mi
6:50 PM50 °FSunny.2 mph71%30.12 "Hg10 mi
6:20 PM50 °FSunny.3 mph76%30.12 "Hg10 mi
5:50 PM52 °FSunny.6 mph72%30.12 "Hg10 mi
5:20 PM54 °FPassing clouds.6 mph67%30.12 "HgN/A
4:50 PM55 °FPassing clouds.6 mph63%30.12 "HgN/A
4:20 PM57 °FPassing clouds.5 mph59%30.12 "HgN/A
3:50 PM57 °FPassing clouds.3 mph59%30.12 "HgN/A
3:20 PM57 °FPassing clouds.5 mph59%30.15 "HgN/A
2:50 PM57 °FPassing clouds.3 mph55%30.15 "HgN/A
2:20 PM55 °FPassing clouds.2 mph63%30.15 "HgN/A
1:50 PM55 °FPassing clouds.3 mph67%30.15 "HgN/A
1:20 PM54 °FPassing clouds.3 mph72%30.18 "HgN/A
12:50 PM52 °FPassing clouds.5 mph82%30.18 "HgN/A
12:20 PM50 °FSunny.2 mph82%30.21 "Hg10 mi
11:50 AM48 °FPassing clouds.3 mph82%30.21 "HgN/A
11:20 AM46 °FLight fog.3 mph87%30.21 "HgN/A
10:50 AM45 °FLight fog.1 mph87%30.21 "HgN/A
10:20 AM43 °FLight fog.1 mph93%30.21 "HgN/A
9:50 AM41 °FScattered clouds.3 mph93%30.21 "HgN/A
9:20 AM41 °FLight fog.1 mph93%30.21 "Hg5 mi
8:50 AM37 °FLight fog.2 mph100%30.21 "Hg5 mi
8:20 AM37 °FSleet. Light fog.2 mph93%30.21 "Hg5 mi
7:50 AM37 °FLight fog.1 mph93%30.21 "Hg5 mi
7:20 AM37 °FLight fog.3 mph93%30.21 "HgN/A
Weather by CustomWeather, © 2014

See weather overviewHow to use our weather pages